Weather History for EGTE - December, 2012

Change the Weather History Date:

Thursday, December 20, 2012

  Actual Average Record
Temperature  
Mean Temperature 47 °F -  
Max Temperature 53 °F 46 °F 57 °F (2003)
Min Temperature 41 °F 36 °F 19 °F (1999)
Degree Days  
Heating Degree Days 18    
Moisture  
Dew Point 49 °F    
Average Humidity 96    
Maximum Humidity 100    
Minimum Humidity 87    
Precipitation  
Precipitation 0.28 in - - ()
Sea Level Pressure  
Sea Level Pressure 29.51 in    
Wind  
Wind Speed 12 mph ()    
Max Wind Speed 24 mph    
Max Gust Speed 38 mph    
Visibility 5.2 miles    
Events Rain    
Averages and records for this station are not official NWS values.
T = Trace of Precipitation, MM = Missing Value Source: Averaged Metar Reports

Daily Weather History Graph

Daily Weather History Graph

Search for Another Location

Airport or City:

Trip Planner

Search our weather history database for the weather conditions in past years. The results will help you decide how hot, cold, wet, or windy it might be!

Date:

Astronomy

Dec. 20, 2012 Rise Set
Actual Time 8:12 AM GMT 4:10 PM GMT
Civil Twilight 7:33 AM GMT 4:49 PM GMT
Nautical Twilight 6:50 AM GMT 5:31 PM GMT
Astronomical Twilight 6:10 AM GMT 6:11 PM GMT
Moon 11:55 AM GMT (12/20) 12:07 AM GMT (12/20)
Length of Visible Light 9h 16m
Length of Day
7h 57m
First Quarter, 53% of the Moon is Illuminated
Dec 20
First Quarter
Dec 28
Full
Jan 5
Last Quarter
Jan 11
New
Jan 18
First Quarter

Hourly Weather History & Observations

Time (GMT) Temp. Windchill Dew Point Humidity Pressure Visibility Wind Dir Wind Speed Gust Speed Precip Events Conditions
12:20 AM 53.6 °F - 51.8 °F 94% 29.62 in 2.5 mi South 13.8 mph - N/A Rain Rain
12:50 AM 53.6 °F - 53.6 °F 100% 29.62 in 3.7 mi South 12.7 mph - N/A Rain Rain
1:20 AM 53.6 °F - 53.6 °F 100% 29.59 in 3.7 mi South 16.1 mph - N/A   Mostly Cloudy
1:50 AM 53.6 °F - 53.6 °F 100% 29.59 in 3.7 mi South 16.1 mph - N/A Rain Rain
2:50 AM 53 °F - 53 °F 100%  in - South 15.0 mph - -  
5:50 AM 53 °F - 53 °F 100%  in - South 16.1 mph - -  
6:20 AM 53.6 °F - 51.8 °F 94% 29.44 in 5.6 mi SSE 23.0 mph - N/A Rain Rain
6:50 AM 53.6 °F - 51.8 °F 94% 29.44 in 5.6 mi SSE 21.9 mph - N/A Rain Rain
7:20 AM 51.8 °F - 51.8 °F 100% 29.42 in 5.0 mi SSE 21.9 mph - N/A Rain Rain
7:50 AM 51.8 °F - 51.8 °F 100% 29.42 in 5.0 mi SSE 24.2 mph - N/A Rain Rain
8:20 AM 51.8 °F - 51.8 °F 100% 29.42 in 5.0 mi SSE 24.2 mph 38.0 mph N/A Rain Rain
8:50 AM 52 °F - 52 °F 100%  in - SSE 12.7 mph - -  
8:50 AM 51.8 °F - 51.8 °F 100% 29.42 in 3.7 mi SSE 19.6 mph - N/A Rain Rain
9:20 AM 51.8 °F - 51.8 °F 100% 29.39 in 1.9 mi SSE 13.8 mph - N/A Rain Rain
9:50 AM 51.8 °F - 51.8 °F 100% 29.39 in 1.9 mi SE 11.5 mph - N/A Rain Rain
10:20 AM 51.8 °F - 51.8 °F 100% 29.39 in 2.8 mi South 11.5 mph - N/A Rain Rain
10:50 AM 51.8 °F - 51.8 °F 100% 29.39 in 3.1 mi South 10.4 mph - N/A   Mostly Cloudy
11:20 AM 51.8 °F - 50.0 °F 94% 29.39 in 5.0 mi West 12.7 mph - N/A Rain Light Rain
11:50 AM 51 °F - 51 °F 99%  in - WNW 9.2 mph - -  
11:50 AM 50.0 °F - 50.0 °F 100% 29.39 in 6.2 mi WNW 12.7 mph - N/A Rain Rain
12:20 PM 50.0 °F - 48.2 °F 94% 29.42 in 6.2 mi WNW 12.7 mph - N/A Rain Rain
12:50 PM 50.0 °F - 50.0 °F 100% 29.42 in 6.2 mi West 10.4 mph - N/A Rain Light Rain
1:20 PM 50.0 °F - 48.2 °F 94% 29.42 in 6.2 mi West 10.4 mph - N/A   Scattered Clouds
1:50 PM 50.0 °F - 48.2 °F 94% 29.44 in 6.2 mi West 11.5 mph - N/A Rain Light Rain
2:20 PM 50.0 °F - 48.2 °F 94% 29.44 in 6.2 mi West 10.4 mph - N/A   Scattered Clouds
2:50 PM 50 °F - 49 °F 95%  in - West 5.8 mph - -  
2:50 PM 50.0 °F - 48.2 °F 94% 29.47 in 6.2 mi West 8.1 mph - N/A Rain Light Rain
3:20 PM 50.0 °F - 48.2 °F 94% 29.47 in 6.2 mi West 9.2 mph - N/A Rain Light Rain
3:50 PM 50.0 °F - 46.4 °F 87% 29.50 in 6.2 mi West 6.9 mph - N/A Rain Light Rain
4:20 PM 48.2 °F - 46.4 °F 93% 29.50 in 6.2 mi West 8.1 mph - N/A   Mostly Cloudy
4:50 PM 48.2 °F - 46.4 °F 93% 29.53 in 4.3 mi West 6.9 mph - N/A Rain Light Rain
5:20 PM 48.2 °F - 46.4 °F 93% 29.53 in 4.3 mi WSW 4.6 mph - N/A Rain Light Rain
5:50 PM 49 °F - 49 °F 98%  in - SW 6.9 mph - -  
5:50 PM 48.2 °F - 48.2 °F 100% 29.53 in 4.3 mi SSW 6.9 mph - N/A   Mostly Cloudy
6:20 PM 48.2 °F - 46.4 °F 93% 29.56 in 6.2 mi WSW 8.1 mph - N/A   Scattered Clouds
6:50 PM 48.2 °F - 44.6 °F 87% 29.56 in 6.2 mi WSW 6.9 mph - N/A   Scattered Clouds
7:20 PM 46.4 °F 43.5 °F 44.6 °F 93% 29.56 in 6.2 mi West 5.8 mph - N/A   Partly Cloudy
7:50 PM 46.4 °F 42.9 °F 44.6 °F 93% 29.59 in 6.2 mi WSW 6.9 mph - N/A   Partly Cloudy
8:20 PM 48.2 °F - 46.4 °F 93% 29.59 in 6.2 mi WSW 6.9 mph - N/A Rain Light Rain Showers
8:50 PM 47 °F - 47 °F 100%  in - West 6.9 mph - -  
8:50 PM 48.2 °F - 46.4 °F 93% 29.62 in 6.2 mi WSW 8.1 mph - N/A   Mostly Cloudy
9:20 PM 48.2 °F - 46.4 °F 93% 29.62 in 6.2 mi WSW 8.1 mph - N/A   Mostly Cloudy
9:50 PM 48.2 °F - 44.6 °F 87% 29.62 in 6.2 mi WSW 6.9 mph - N/A   Mostly Cloudy
10:20 PM 48.2 °F - 44.6 °F 87% 29.62 in 6.2 mi SW 5.8 mph - N/A   Scattered Clouds
10:50 PM 46.4 °F 43.5 °F 44.6 °F 93% 29.65 in 6.2 mi WSW 5.8 mph - N/A   Partly Cloudy
11:20 PM 46.4 °F 45.2 °F 44.6 °F 93% 29.65 in 6.2 mi SW 3.5 mph - N/A   Partly Cloudy
11:50 PM 41 °F - 41 °F 100%  in - South 3.5 mph - -  
11:50 PM 44.6 °F 42.2 °F 42.8 °F 93% 29.65 in 6.2 mi South 4.6 mph - N/A   Partly Cloudy